This is the latest recevied weather packets stored in our database for station/object KN6CRX. If no packets are shown the sender has not sent any weather packets the latest 10 day(s).
| Time | Temp. | Humidity | Pressure | Rain* | Wind** | Luminosity | Snow |
|---|---|---|---|---|---|---|---|
| 1787748406 | 13.33° C | 68% | 1024.8 hPa | 0 mm | - | 4 W/m² | - |
| 1787748102 | 13.33° C | 66% | 1024.7 hPa | 0 mm | - | 2 W/m² | - |
| 1787747801 | 13.89° C | 65% | 1024.7 hPa | 0 mm | - | 1 W/m² | - |
| 1787747497 | 13.33° C | 65% | 1024.5 hPa | 0 mm | - | 0 W/m² | - |
| 1787747191 | 13.33° C | 65% | 1024.4 hPa | 0 mm | - | 0 W/m² | - |
| 1787746888 | 13.89° C | 66% | 1024.3 hPa | 0 mm | - | 0 W/m² | - |
| 1787746587 | 13.89° C | 65% | 1024.3 hPa | 0 mm | - | 0 W/m² | - |
| 1787746287 | 13.89° C | 66% | 1024.6 hPa | 0 mm | - | 0 W/m² | - |
| 1787745985 | 13.89° C | 66% | 1024.5 hPa | 0 mm | - | 0 W/m² | - |
| 1787745681 | 13.89° C | 66% | 1024.7 hPa | 0 mm | - | 0 W/m² | - |
| 1787745374 | 13.89° C | 66% | 1024.4 hPa | 0 mm | - | 0 W/m² | - |
| 1787745073 | 13.89° C | 66% | 1024.5 hPa | 0 mm | - | 0 W/m² | - |
| 1787744770 | 13.89° C | 66% | 1024.5 hPa | 0 mm | - | 0 W/m² | - |
| 1787744466 | 14.44° C | 63% | 1024.5 hPa | 0 mm | - | 0 W/m² | - |
| 1787744161 | 14.44° C | 63% | 1024.5 hPa | 0 mm | - | 0 W/m² | - |
| 1787743857 | 14.44° C | 62% | 1024.5 hPa | 0 mm | - | 0 W/m² | - |
| 1787743556 | 14.44° C | 61% | 1024.6 hPa | 0 mm | - | 0 W/m² | - |
| 1787743252 | 14.44° C | 61% | 1024.3 hPa | 0 mm | - | 0 W/m² | - |
| 1787742948 | 14.44° C | 61% | 1024.7 hPa | 0 mm | - | 0 W/m² | - |
| 1787742643 | 15° C | 60% | 1024.6 hPa | 0 mm | - | 0 W/m² | - |
| 1787742338 | 15° C | 59% | 1024.6 hPa | 0 mm | - | 0 W/m² | - |
| 1787742034 | 15° C | 59% | 1024.6 hPa | 0 mm | - | 0 W/m² | - |
| 1787741730 | 15° C | 61% | 1024.5 hPa | 0 mm | - | 0 W/m² | - |
| 1787741426 | 15° C | 61% | 1024.7 hPa | 0 mm | - | 0 W/m² | - |
| 1787741125 | 15° C | 62% | 1024.8 hPa | 0 mm | - | 0 W/m² | - |
* Rain latest hour (hover to see other rain measurements)
** Current wind speed in m/s (hover to see current wind gust speed)